Weather History for Clinton, IA

Change the Weather History Date:

Friday, March 21, 2014

  Actual Average Record
Temperature  
Mean Temperature 42 °F -  
Max Temperature 59 °F 49 °F 82 °F (2012)
Min Temperature 26 °F 30 °F 6 °F (1960)
Degree Days  
Heating Degree Days 22    
Moisture  
Dew Point 31 °F    
Average Humidity 68    
Maximum Humidity 86    
Minimum Humidity 45    
Precipitation  
Precipitation 0.00 in - - ()
Sea Level Pressure  
Sea Level Pressure 29.88 in    
Wind  
Wind Speed 11 mph (East)    
Max Wind Speed 25 mph    
Max Gust Speed 34 mph    
Visibility 10 miles    
Events      
Averages and records for this station are not official NWS values.
T = Trace of Precipitation, MM = Missing Value Source: NWS Daily Summary

Daily Weather History Graph

Daily Weather History Graph

Search for Another Location

Airport:

Trip Planner

Search our weather history database for the weather conditions in past years. The results will help you decide how hot, cold, wet, or windy it might be!

Date:

Astronomy

Mar. 21, 2014 Rise Set
Actual Time 7:02 AM CDT 7:14 PM CDT
Civil Twilight 6:35 AM CDT 7:42 PM CDT
Nautical Twilight 6:02 AM CDT 8:15 PM CDT
Astronomical Twilight 5:29 AM CDT 8:48 PM CDT
Moon No Moon Rise 9:50 AM CDT (3/21)
Length of Visible Light 13h 07m
Length of Day
12h 11m
Waning Gibbous, 75% of the Moon is Illuminated
Mar 21
Waning Gibbous
Mar 23
Last Quarter
Mar 30
New
Apr 7
First Quarter
Apr 15
Full

Hourly Weather History & Observations

Time (CDT) Temp. Windchill Dew Point Humidity Pressure Visibility Wind Dir Wind Speed Gust Speed Precip Events Conditions
12:15 AM 35.6 °F 31.7 °F 28.4 °F 75% 30.01 in 10.0 mi East 4.6 mph - N/A   Mostly Cloudy
12:35 AM 35.6 °F 31.7 °F 26.6 °F 70% 30.01 in 10.0 mi SE 4.6 mph - N/A   Overcast
12:55 AM 35.6 °F 30.7 °F 26.6 °F 70% 29.99 in 10.0 mi East 5.8 mph - N/A   Mostly Cloudy
1:15 AM 35.6 °F 32.8 °F 26.6 °F 70% 30.00 in 10.0 mi East 3.5 mph - N/A   Mostly Cloudy
1:35 AM 33.8 °F 28.6 °F 26.6 °F 75% 30.00 in 10.0 mi ENE 5.8 mph - N/A   Mostly Cloudy
1:55 AM 33.8 °F 27.0 °F 26.6 °F 75% 30.00 in 10.0 mi ENE 8.1 mph - N/A   Mostly Cloudy
2:15 AM 32.0 °F 24.8 °F 26.6 °F 80% 29.99 in 10.0 mi East 8.1 mph - N/A   Mostly Cloudy
2:35 AM 32.0 °F 25.6 °F 26.6 °F 80% 29.98 in 10.0 mi ENE 6.9 mph - N/A   Mostly Cloudy
2:55 AM 30.2 °F 22.6 °F 24.8 °F 80% 29.97 in 10.0 mi ENE 8.1 mph - N/A   Scattered Clouds
3:15 AM 30.2 °F 22.6 °F 24.8 °F 80% 29.96 in 10.0 mi East 8.1 mph - N/A   Clear
3:35 AM 28.4 °F 21.2 °F 24.8 °F 86% 29.95 in 10.0 mi East 6.9 mph - N/A   Clear
3:55 AM 28.4 °F 20.4 °F 23.0 °F 80% 29.95 in 10.0 mi East 8.1 mph - N/A   Clear
4:15 AM 26.6 °F 17.5 °F 23.0 °F 86% 29.93 in 10.0 mi East 9.2 mph - N/A   Clear
4:35 AM 30.2 °F 21.3 °F 24.8 °F 80% 29.92 in 10.0 mi East 10.4 mph - N/A   Clear
4:55 AM 33.8 °F 25.3 °F 26.6 °F 75% 29.93 in 10.0 mi East 11.5 mph - N/A   Clear
5:15 AM 30.2 °F 21.9 °F 24.8 °F 80% 29.92 in 10.0 mi East 9.2 mph - N/A   Clear
5:35 AM 30.2 °F 21.9 °F 24.8 °F 80% 29.92 in 10.0 mi East 9.2 mph - N/A   Clear
5:55 AM 28.4 °F 19.7 °F 24.8 °F 86% 29.93 in 10.0 mi East 9.2 mph - N/A   Clear
6:15 AM 32.0 °F 23.6 °F 26.6 °F 80% 29.93 in 10.0 mi East 10.4 mph - N/A   Clear
6:35 AM 32.0 °F 23.6 °F 26.6 °F 80% 29.93 in 10.0 mi East 10.4 mph - N/A   Clear
6:55 AM 32.0 °F 23.0 °F 26.6 °F 80% 29.93 in 10.0 mi East 11.5 mph - N/A   Clear
7:15 AM 32.0 °F 23.0 °F 26.6 °F 80% 29.92 in 7.0 mi East 11.5 mph - N/A   Clear
7:35 AM 32.0 °F 24.2 °F 26.6 °F 80% 29.92 in 6.0 mi ESE 9.2 mph - N/A   Clear
7:55 AM 33.8 °F 25.3 °F 28.4 °F 81% 29.91 in 6.0 mi ESE 11.5 mph - N/A   Clear
8:15 AM 35.6 °F 27.1 °F 28.4 °F 75% 29.91 in 6.0 mi ESE 12.7 mph - N/A   Clear
8:35 AM 35.6 °F 26.6 °F 28.4 °F 75% 29.91 in 7.0 mi ESE 13.8 mph - N/A   Clear
8:55 AM 37.4 °F 28.9 °F 30.2 °F 75% 29.90 in 7.0 mi ESE 13.8 mph - N/A   Clear
9:15 AM 37.4 °F 28.5 °F 30.2 °F 75% 29.92 in 8.0 mi ESE 15.0 mph - N/A   Clear
9:35 AM 39.2 °F 30.5 °F 30.2 °F 70% 29.90 in 10.0 mi SE 16.1 mph 20.7 mph N/A   Clear
9:55 AM 42.8 °F 35.4 °F 32.0 °F 66% 29.90 in 10.0 mi SE 15.0 mph - N/A   Partly Cloudy
10:15 AM 42.8 °F 33.8 °F 32.0 °F 66% 29.88 in 10.0 mi ESE 21.9 mph 25.3 mph N/A   Partly Cloudy
10:35 AM 44.6 °F 36.9 °F 32.0 °F 61% 29.87 in 10.0 mi ESE 18.4 mph 23.0 mph N/A   Scattered Clouds
10:55 AM 46.4 °F 39.2 °F 33.8 °F 62% 29.86 in 10.0 mi SE 18.4 mph - N/A   Partly Cloudy
11:15 AM 46.4 °F 39.5 °F 35.6 °F 66% 29.85 in 10.0 mi ESE 17.3 mph 21.9 mph N/A   Clear
11:35 AM 46.4 °F 40.1 °F 35.6 °F 66% 29.85 in 10.0 mi ESE 15.0 mph - N/A   Clear
11:55 AM 50.0 °F - 35.6 °F 58% 29.83 in 10.0 mi ESE 17.3 mph - N/A   Clear
12:15 PM 51.8 °F - 35.6 °F 54% 29.82 in 10.0 mi SE 19.6 mph 23.0 mph N/A   Clear
12:35 PM 51.8 °F - 37.4 °F 58% 29.81 in 10.0 mi SE 17.3 mph 24.2 mph N/A   Clear
12:55 PM 53.6 °F - 37.4 °F 54% 29.79 in 10.0 mi SE 18.4 mph 23.0 mph N/A   Clear
1:15 PM 53.6 °F - 37.4 °F 54% 29.77 in 10.0 mi SE 18.4 mph 25.3 mph N/A   Clear
1:35 PM 55.4 °F - 39.2 °F 54% 29.77 in 10.0 mi South 16.1 mph - N/A   Clear
1:55 PM 57.2 °F - 39.2 °F 51% 29.75 in 10.0 mi SSE 16.1 mph 21.9 mph N/A   Clear
2:15 PM 57.2 °F - 39.2 °F 51% 29.75 in 10.0 mi South 19.6 mph 23.0 mph N/A   Clear
2:35 PM 59.0 °F - 39.2 °F 48% 29.74 in 10.0 mi SSW 17.3 mph 24.2 mph N/A   Clear
2:55 PM 59.0 °F - 37.4 °F 45% 29.73 in 10.0 mi SW 21.9 mph 25.3 mph N/A   Clear
3:15 PM 57.2 °F - 37.4 °F 48% 29.73 in 10.0 mi SW 17.3 mph - N/A   Mostly Cloudy
3:35 PM 55.4 °F - 37.4 °F 51% 29.73 in 10.0 mi WSW 12.7 mph - N/A   Mostly Cloudy
3:55 PM 57.2 °F - 39.2 °F 51% 29.72 in 10.0 mi WSW 12.7 mph - N/A   Mostly Cloudy
4:15 PM 57.2 °F - 39.2 °F 51% 29.72 in 10.0 mi West 16.1 mph 21.9 mph N/A   Mostly Cloudy
4:35 PM 55.4 °F - 39.2 °F 54% 29.72 in 10.0 mi WNW 16.1 mph 19.6 mph N/A   Mostly Cloudy
4:55 PM 55.4 °F - 39.2 °F 54% 29.74 in 10.0 mi West 13.8 mph - N/A   Mostly Cloudy
5:15 PM 53.6 °F - 37.4 °F 54% 29.76 in 10.0 mi West 18.4 mph 24.2 mph N/A   Mostly Cloudy
5:35 PM 51.8 °F - 37.4 °F 58% 29.79 in 10.0 mi WNW 24.2 mph 27.6 mph N/A   Overcast
5:55 PM 50.0 °F - 35.6 °F 58% 29.81 in 10.0 mi WNW 24.2 mph 28.8 mph N/A   Overcast
6:15 PM 48.2 °F - 35.6 °F 62% 29.82 in 10.0 mi NW 20.7 mph - N/A   Overcast
6:35 PM 50.0 °F - 35.6 °F 58% 29.83 in 10.0 mi NW 19.6 mph 24.2 mph N/A   Mostly Cloudy
6:55 PM 46.4 °F 41.1 °F 35.6 °F 66% 29.82 in 10.0 mi NW 11.5 mph - N/A   Scattered Clouds
7:15 PM 44.6 °F 39.2 °F 33.8 °F 66% 29.83 in 10.0 mi NW 10.4 mph - N/A   Clear
7:35 PM 41.0 °F 35.8 °F 32.0 °F 70% 29.84 in 10.0 mi NW 8.1 mph - N/A   Partly Cloudy
7:55 PM 41.0 °F 36.4 °F 33.8 °F 76% 29.85 in 10.0 mi WNW 6.9 mph - N/A   Mostly Cloudy
8:15 PM 42.8 °F 33.3 °F 35.6 °F 76% 29.86 in 10.0 mi NW 24.2 mph 31.1 mph N/A   Scattered Clouds
8:35 PM 42.8 °F 34.3 °F 33.8 °F 70% 29.89 in 10.0 mi NNW 19.6 mph 31.1 mph N/A   Partly Cloudy
8:55 PM 39.2 °F 30.8 °F 32.0 °F 75% 29.90 in 10.0 mi NW 15.0 mph 25.3 mph N/A   Partly Cloudy
9:15 PM 39.2 °F 28.7 °F 30.2 °F 70% 29.92 in 10.0 mi NW 23.0 mph 31.1 mph N/A   Mostly Cloudy
9:35 PM 39.2 °F 28.3 °F 30.2 °F 70% 29.93 in 10.0 mi NW 25.3 mph 34.5 mph N/A   Overcast
9:55 PM 37.4 °F 26.9 °F 28.4 °F 70% 29.95 in 10.0 mi NW 20.7 mph 32.2 mph N/A   Overcast
10:15 PM 37.4 °F 26.9 °F 28.4 °F 70% 29.95 in 10.0 mi NW 20.7 mph 28.8 mph N/A   Overcast
10:35 PM 37.4 °F 27.5 °F 28.4 °F 70% 29.96 in 10.0 mi NW 18.4 mph 26.5 mph N/A   Overcast
10:55 PM 37.4 °F 27.5 °F 28.4 °F 70% 29.97 in 10.0 mi NW 18.4 mph 29.9 mph N/A   Overcast
11:15 PM 37.4 °F 27.5 °F 28.4 °F 70% 29.99 in 10.0 mi NW 18.4 mph 23.0 mph N/A   Overcast
11:35 PM 37.4 °F 28.2 °F 26.6 °F 65% 30.00 in 10.0 mi NW 16.1 mph - N/A   Overcast
11:55 PM 35.6 °F 25.9 °F 26.6 °F 70% 30.00 in 10.0 mi WNW 16.1 mph - N/A   Scattered Clouds